When you browse on this site, cookies collect data to enhance your experience and personalize the content and advertising you see.
Visit our Privacy Policy to learn more. By continuing to use the site, you agree to this use of cookies and data.
  • en France
  • Liste des pays
  • À 7 jours
  • Température de l'eau
  • Carte météo
  • Widgets météo
  • user-avatar
    Se connecter

    Météo par heure à Thunder Bay

    Ce jour, 7 Avril, Mardi

    Heure Température Précipitation Vent Pression Humidité
    00:00 0°C° 0 mm 3 m/s 734 mmHg 91%
    01:00 0°C° 0.1 mm 3 m/s 733 mmHg 92%
    02:00 0°C° 0.1 mm 3 m/s 733 mmHg 92%
    03:00 0°C° 0.1 mm 3 m/s 732 mmHg 93%
    04:00 -1°C° 1 mm 4 m/s 732 mmHg 94%
    05:00 -1°C° 1 mm 4 m/s 731 mmHg 95%
    06:00 -1°C° 1 mm 4 m/s 731 mmHg 95%
    07:00 -1°C° 1.1 mm 4 m/s 730 mmHg 96%
    08:00 -1°C° 1.1 mm 4 m/s 730 mmHg 96%
    09:00 -1°C° 1.1 mm 4 m/s 729 mmHg 97%
    10:00 -1°C° 0.9 mm 4 m/s 729 mmHg 97%
    11:00 0°C° 0.9 mm 3 m/s 729 mmHg 97%
    12:00 +1°C° 0.9 mm 3 m/s 728 mmHg 98%
    13:00 +2°C° 0.5 mm 2 m/s 728 mmHg 98%
    14:00 +2°C° 0.5 mm 2 m/s 727 mmHg 98%
    15:00 +3°C° 0.5 mm 1 m/s 727 mmHg 98%
    16:00 +3°C° 0 mm 1 m/s 727 mmHg 98%
    17:00 +3°C° 0 mm 1 m/s 727 mmHg 98%
    18:00 +2°C° 0 mm 0 m/s 727 mmHg 98%
    19:00 +3°C° 0 mm 1 m/s 727 mmHg 97%
    20:00 +3°C° 0 mm 1 m/s 728 mmHg 96%
    21:00 +2°C° 0 mm 1 m/s 728 mmHg 95%
    22:00 +1°C° 0 mm 2 m/s 728 mmHg 94%
    23:00 +1°C° 0 mm 2 m/s 728 mmHg 92%

    Demain, 8 Avril, Mercredi

    Heure Température Précipitation Vent Pression Humidité
    00:00 -1°C° 0 mm 2 m/s 728 mmHg 91%
    01:00 -1°C° 0 mm 2 m/s 728 mmHg 92%
    02:00 -1°C° 0 mm 2 m/s 728 mmHg 92%
    03:00 -2°C° 0 mm 2 m/s 727 mmHg 92%
    04:00 0°C° 0 mm 1 m/s 727 mmHg 92%
    05:00 +1°C° 0 mm 1 m/s 727 mmHg 92%
    06:00 +1°C° 0 mm 1 m/s 727 mmHg 91%
    07:00 +1°C° 0 mm 2 m/s 727 mmHg 88%
    08:00 +3°C° 0 mm 2 m/s 727 mmHg 84%
    09:00 +3°C° 0 mm 3 m/s 727 mmHg 80%
    10:00 +4°C° 0 mm 4 m/s 727 mmHg 75%
    11:00 +3°C° 0 mm 5 m/s 726 mmHg 69%
    12:00 +4°C° 0 mm 6 m/s 726 mmHg 63%
    13:00 +4°C° 0 mm 6 m/s 726 mmHg 63%
    14:00 +3°C° 0 mm 7 m/s 726 mmHg 64%
    15:00 +3°C° 0 mm 7 m/s 726 mmHg 64%
    16:00 +2°C° 0 mm 7 m/s 726 mmHg 66%
    17:00 +2°C° 0 mm 6 m/s 726 mmHg 68%
    18:00 +1°C° 0 mm 6 m/s 726 mmHg 69%
    19:00 -1°C° 0 mm 6 m/s 726 mmHg 71%
    20:00 -2°C° 0 mm 6 m/s 726 mmHg 73%
    21:00 -2°C° 0 mm 6 m/s 726 mmHg 75%
    22:00 -2°C° 0 mm 5 m/s 725 mmHg 78%
    23:00 -2°C° 0 mm 5 m/s 725 mmHg 81%

    Après-demain, 9 Avril, Jeudi

    Heure Température Précipitation Vent Pression Humidité
    00:00 -4°C° 0 mm 5 m/s 725 mmHg 84%
    01:00 -4°C° 0 mm 5 m/s 724 mmHg 82%
    02:00 -4°C° 0 mm 6 m/s 724 mmHg 80%
    03:00 -4°C° 0 mm 6 m/s 724 mmHg 78%
    04:00 -4°C° 0 mm 6 m/s 724 mmHg 78%
    05:00 -6°C° 0 mm 7 m/s 724 mmHg 77%
    06:00 -6°C° 0 mm 7 m/s 724 mmHg 76%
    07:00 -4°C° 0 mm 7 m/s 724 mmHg 73%
    08:00 -4°C° 0 mm 8 m/s 725 mmHg 71%
    09:00 -4°C° 0 mm 8 m/s 725 mmHg 68%
    10:00 -2°C° 0 mm 8 m/s 725 mmHg 66%
    11:00 -1°C° 0 mm 8 m/s 725 mmHg 64%
    12:00 0°C° 0 mm 8 m/s 726 mmHg 63%
    13:00 0°C° 0 mm 8 m/s 726 mmHg 63%
    14:00 0°C° 0 mm 8 m/s 726 mmHg 64%
    15:00 0°C° 0 mm 8 m/s 727 mmHg 64%
    16:00 -1°C° 0 mm 7 m/s 728 mmHg 65%
    17:00 -2°C° 0 mm 7 m/s 728 mmHg 67%
    18:00 -2°C° 0 mm 6 m/s 729 mmHg 68%
    19:00 -3°C° 0 mm 6 m/s 729 mmHg 70%
    20:00 -4°C° 0 mm 6 m/s 730 mmHg 71%
    21:00 -5°C° 0 mm 5 m/s 731 mmHg 73%
    22:00 -5°C° 0 mm 5 m/s 731 mmHg 73%
    23:00 -6°C° 0 mm 5 m/s 731 mmHg 74%

    10 Avril, Vendredi

    Heure Température Précipitation Vent Pression Humidité
    00:00 -5°C° 0 mm 4 m/s 732 mmHg 74%
    01:00 -6°C° 0 mm 5 m/s 732 mmHg 73%
    02:00 -7°C° 0 mm 5 m/s 732 mmHg 73%
    03:00 -7°C° 0 mm 5 m/s 732 mmHg 73%
    04:00 -7°C° 0 mm 5 m/s 733 mmHg 72%
    05:00 -7°C° 0 mm 5 m/s 733 mmHg 71%
    06:00 -7°C° 0 mm 5 m/s 734 mmHg 70%
    07:00 -6°C° 0 mm 5 m/s 734 mmHg 66%
    08:00 -6°C° 0 mm 5 m/s 734 mmHg 62%
    09:00 -4°C° 0 mm 4 m/s 734 mmHg 59%
    10:00 -3°C° 0 mm 4 m/s 734 mmHg 55%
    11:00 0°C° 0 mm 3 m/s 734 mmHg 52%
    12:00 +1°C° 0 mm 3 m/s 734 mmHg 49%
    13:00 +1°C° 0 mm 3 m/s 734 mmHg 48%
    14:00 +2°C° 0 mm 3 m/s 734 mmHg 48%
    15:00 +2°C° 0 mm 3 m/s 734 mmHg 47%
    16:00 +2°C° 0 mm 2 m/s 734 mmHg 52%
    17:00 +2°C° 0 mm 2 m/s 734 mmHg 57%
    18:00 +2°C° 0 mm 1 m/s 734 mmHg 61%
    19:00 +1°C° 0 mm 1 m/s 734 mmHg 66%
    20:00 0°C° 0 mm 1 m/s 734 mmHg 70%
    21:00 -1°C° 0 mm 1 m/s 734 mmHg 75%
    22:00 -1°C° 0 mm 1 m/s 734 mmHg 77%
    23:00 -1°C° 0 mm 1 m/s 734 mmHg 79%

    11 Avril, Samedi

    Heure Température Précipitation Vent Pression Humidité
    00:00 -1°C° 0 mm 1 m/s 734 mmHg 81%
    01:00 -1°C° 0 mm 1 m/s 734 mmHg 81%
    02:00 -1°C° 0 mm 1 m/s 734 mmHg 81%
    03:00 -1°C° 0 mm 1 m/s 734 mmHg 81%
    04:00 -1°C° 0 mm 1 m/s 734 mmHg 80%
    05:00 -1°C° 0 mm 1 m/s 733 mmHg 79%
    06:00 -1°C° 0 mm 1 m/s 733 mmHg 78%
    07:00 0°C° 0 mm 1 m/s 733 mmHg 73%
    08:00 -1°C° 0 mm 2 m/s 733 mmHg 67%
    09:00 +2°C° 0 mm 2 m/s 732 mmHg 62%
    10:00 +1°C° 0 mm 3 m/s 732 mmHg 58%
    11:00 +2°C° 0 mm 3 m/s 731 mmHg 55%
    12:00 +3°C° 0 mm 4 m/s 731 mmHg 52%
    13:00 +3°C° 0.1 mm 4 m/s 730 mmHg 54%
    14:00 +2°C° 0.1 mm 5 m/s 730 mmHg 57%
    15:00 +2°C° 0.1 mm 5 m/s 729 mmHg 59%
    16:00 +3°C° 0.2 mm 4 m/s 729 mmHg 64%
    17:00 +1°C° 0.2 mm 4 m/s 729 mmHg 68%
    18:00 +1°C° 0.2 mm 4 m/s 729 mmHg 72%
    19:00 0°C° 0 mm 4 m/s 729 mmHg 75%
    20:00 -1°C° 0 mm 5 m/s 730 mmHg 79%
    21:00 -3°C° 0 mm 6 m/s 730 mmHg 82%
    22:00 -3°C° 0 mm 6 m/s 730 mmHg 81%
    23:00 -4°C° 0 mm 6 m/s 731 mmHg 80%

    12 Avril, Dimanche

    Heure Température Précipitation Vent Pression Humidité
    00:00 -4°C° 0 mm 6 m/s 731 mmHg 78%
    01:00 -5°C° 0 mm 6 m/s 731 mmHg 77%
    02:00 -5°C° 0 mm 6 m/s 731 mmHg 75%
    03:00 -6°C° 0 mm 6 m/s 732 mmHg 74%
    04:00 -6°C° 0 mm 6 m/s 732 mmHg 73%
    05:00 -8°C° 0 mm 6 m/s 732 mmHg 72%
    06:00 -8°C° 0 mm 6 m/s 733 mmHg 72%
    07:00 -6°C° 0 mm 5 m/s 733 mmHg 67%
    08:00 -5°C° 0 mm 5 m/s 733 mmHg 62%
    09:00 -5°C° 0 mm 5 m/s 734 mmHg 58%
    10:00 -4°C° 0 mm 5 m/s 734 mmHg 53%
    11:00 -2°C° 0 mm 5 m/s 734 mmHg 49%
    12:00 -1°C° 0 mm 5 m/s 734 mmHg 44%
    13:00 -1°C° 0 mm 5 m/s 734 mmHg 44%
    14:00 -1°C° 0 mm 5 m/s 734 mmHg 43%
    15:00 -1°C° 0 mm 4 m/s 733 mmHg 42%
    16:00 -2°C° 0 mm 5 m/s 733 mmHg 45%
    17:00 -2°C° 0 mm 5 m/s 733 mmHg 48%
    18:00 -4°C° 0 mm 5 m/s 733 mmHg 51%
    19:00 -5°C° 0 mm 5 m/s 733 mmHg 53%
    20:00 -6°C° 0 mm 5 m/s 733 mmHg 55%
    21:00 -7°C° 0 mm 5 m/s 733 mmHg 56%
    22:00 -7°C° 0 mm 5 m/s 733 mmHg 58%
    23:00 -8°C° 0 mm 5 m/s 733 mmHg 61%
    Voir plus